North Lakhimpur Airport
VELR : now visible

Airfield :











YOU CAN JOIN US ON...

 
LOGIN :

Register | Disclaimer

   EN    FR    IT 

 









Legend :    VFR   Marginal VFR   IFR   Intensive IFR   Very Intensive IFR
Visi :
Ceiling :
>= 8 km
>= 3000ft
5 to 8 km
1000 to 3000 ft
1500m to 5 km
500 to 1000 ft
800 to 1500m
200 to 500 ft
< 800m
< 200 ft
Symbols :   Thunderstorms  Fog  Heavy snow  Heavy precipitations  Wind > 20 kt






- Airport Elevation : 330 ft
- IATA code : IXI


VELR - North Lakhimpur

CURRENT METAR :
  • 301000Z 08003KT 7000 FEW025 26/16 Q1013

EXPIRED METARs :
  • 300930Z 12002KT 7000 FEW025 27/16 Q1014
  • 300900Z 10004KT 7000 FEW025 28/16 Q1014

TAF TAF VELR
Valid from the 30 at 09:00 until the 30 at 18:00 UTC


300800Z 3009/3018 09006KT 5000 HZ FEW018
BECMG 3013/3015 00000KT 3000 BR FEW018 SCT100
VECF FIR / Asia



MET'MAP, your aeronautical weather chart ! - Copyright ORBIFLY December 2007 - Disclaimer

ORBIFLY MET'MAP TEAM :

Programming & Development : Alexandra Zaïnal
Concept & original design : Baudouin d'Aumeries
Assistance for programming : Marc-Olivier Méhu
Technical & hardware support : Manuel Goepfert

Contact : metmap@orbifly.com




SOURCES & CREDITS :

   NOAA       Earth
Advisory